Date String (YYYY-MM-DD hh:mm:ss) UTC,Instrument flags,absolute air pressure of the measurement (hPa),sample flow rate (lpm),inlet stack bypass flow (lpm),air temperature of the measurement (°C),ambient temperature measured by the external sensor (°C),aerosol sample conditioner tube jacket temperature (°C),OPC LED temperature (°C),internal box temperature (°C),relative humidity of the measurement (%),span deviation,mass concentration of particles derived from Lorenz-Mie calculation of OPC scattering (μg/m³),mass concentration of particles derived from Lorenz-Mie calculation of OPC scattering (μg/m³),mass concentration of particles derived from Lorenz-Mie calculation of OPC scattering (μg/m³)
DateTimeUTC,F1_M11,P_M11,Q1_M11,Q2_M11,T1_M11,T2_M11,T3_M11,T4_M11,T5_M11,U1_M11,ZSPAN_M11,X0_M11,X2_M11,X1_M11
2024-04-11 17:00:00,SystemResetWarning,0832.6,4.99,000.00,024.4,023.9,000.0,032.8,026.3,016.2,0000.0,0014.23,0004.69,0003.94
2024-04-11 17:01:00,SystemResetWarning,0832.5,5.00,000.00,024.5,023.9,000.0,032.8,026.3,016.1,0000.0,0013.58,0004.73,0003.95
2024-04-11 17:02:00,SystemResetWarning,0832.5,4.99,000.00,024.5,023.9,000.0,032.8,026.3,016.0,0000.0,0013.08,0004.76,0003.96
2024-04-11 17:03:00,SystemResetWarning,0832.5,5.00,000.00,024.5,023.9,000.0,032.8,026.3,016.0,0000.0,0012.61,0004.80,0003.98
2024-04-11 17:04:00,SystemResetWarning,0832.5,5.01,000.00,024.5,023.9,000.0,032.8,026.3,015.8,0000.0,0012.07,0004.83,0003.98
2024-04-11 17:05:00,SystemResetWarning,0832.5,5.00,000.00,024.5,023.9,000.0,032.8,026.3,016.0,0000.0,0011.43,0004.84,0004.01
2024-04-11 17:06:00,SystemResetWarning,0832.5,5.00,000.00,024.5,023.9,000.0,032.9,026.3,016.2,0000.0,0011.03,0004.84,0004.02
2024-04-11 17:07:00,SystemResetWarning,0832.6,5.00,000.00,024.5,023.9,000.0,032.9,026.4,016.3,0000.0,0010.34,0004.82,0004.04
2024-04-11 17:08:00,SystemResetWarning,0832.5,5.00,000.00,024.5,023.9,000.0,032.9,026.4,016.1,0000.0,0009.04,0004.76,0004.04
2024-04-11 17:09:00,SystemResetWarning,0832.5,5.00,000.00,024.5,023.9,000.0,032.9,026.3,016.0,0000.0,0009.00,0004.78,0004.05
2024-04-11 17:10:00,SystemResetWarning,0832.5,5.01,000.00,024.5,023.9,000.0,032.9,026.3,016.2,0000.0,0008.98,0004.78,0004.07
2024-04-11 17:11:00,SystemResetWarning,0832.5,5.00,000.00,024.5,023.9,000.0,032.9,026.3,016.2,0000.0,0008.76,0004.75,0004.08
2024-04-11 17:12:00,SystemResetWarning,0832.5,5.00,000.00,024.5,023.9,000.0,032.9,026.3,016.3,0000.0,0008.58,0004.74,0004.09
2024-04-11 17:13:00,SystemResetWarning,0832.5,4.99,000.00,024.5,023.9,000.0,032.9,026.3,016.1,0000.0,0008.66,0004.75,0004.09
2024-04-11 17:14:00,SystemResetWarning,0832.5,4.99,000.00,024.5,023.9,000.0,032.9,026.3,016.1,0000.0,0008.86,0004.74,0004.10
2024-04-11 17:15:00,SystemResetWarning,0832.6,4.99,000.00,024.5,023.9,000.0,032.9,026.3,016.2,0000.0,0008.78,0004.69,0004.10
2024-04-11 17:16:00,SystemResetWarning,0832.5,5.00,000.00,024.5,023.9,000.0,032.9,026.3,016.1,0000.0,0008.71,0004.66,0004.10
2024-04-11 17:17:00,SystemResetWarning,0832.5,5.01,000.00,024.5,023.9,000.0,032.9,026.4,016.3,0000.0,0008.70,0004.65,0004.11
2024-04-11 17:18:00,SystemResetWarning,0832.5,4.99,000.00,024.5,023.9,000.0,032.9,026.3,016.1,0000.0,0009.00,0004.70,0004.11
2024-04-11 17:19:00,SystemResetWarning,0832.4,5.00,000.00,024.5,023.9,000.0,032.9,026.3,015.8,0000.0,0009.37,0004.78,0004.12
2024-04-11 17:20:00,SystemResetWarning,0832.4,4.99,000.00,024.6,023.9,000.0,032.9,026.3,015.8,0000.0,0010.13,0004.79,0004.13
2024-04-11 17:21:00,SystemResetWarning,0832.3,5.00,000.00,024.6,023.9,000.0,032.9,026.3,016.1,0000.0,0010.66,0004.83,0004.14
2024-04-11 17:22:00,SystemResetWarning,0832.3,5.00,000.00,024.6,024.0,000.0,033.0,026.4,016.1,0000.0,0010.55,0004.87,0004.14
2024-04-11 17:23:00,SystemResetWarning,0832.3,5.02,000.00,024.6,024.0,000.0,033.0,026.4,016.1,0000.0,0010.57,0004.90,0004.14
2024-04-11 17:24:00,SystemResetWarning,0832.3,5.01,000.00,024.6,024.0,000.0,033.0,026.4,016.2,0000.0,0010.43,0004.89,0004.14
2024-04-11 17:25:00,SystemResetWarning,0832.3,5.00,000.00,024.6,024.0,000.0,033.0,026.4,016.1,0000.0,0010.19,0004.88,0004.13
2024-04-11 17:26:00,SystemResetWarning,0832.3,5.00,000.00,024.6,024.1,000.0,033.0,026.5,016.2,0000.0,0010.41,0004.93,0004.14
2024-04-11 17:27:00,SystemResetWarning,0832.3,5.00,000.00,024.6,024.1,000.0,033.0,026.5,016.2,0000.0,0010.56,0004.94,0004.14
2024-04-11 17:28:00,SystemResetWarning,0832.3,4.99,000.00,024.6,024.1,000.0,033.0,026.5,016.2,0000.0,0010.80,0004.98,0004.14
2024-04-11 17:29:00,SystemResetWarning,0832.3,5.00,000.00,024.6,024.1,000.0,033.0,026.5,016.3,0000.0,0011.09,0004.96,0004.14
2024-04-11 17:30:00,SystemResetWarning,0832.3,5.00,000.00,024.6,024.1,000.0,033.0,026.5,016.3,0000.0,0011.65,0004.94,0004.14
2024-04-11 17:31:00,SystemResetWarning,0832.3,4.99,000.00,024.7,024.1,000.0,033.0,026.5,016.2,0000.0,0011.08,0004.97,0004.14
2024-04-11 17:32:00,SystemResetWarning,0832.3,5.00,000.00,024.7,024.1,000.0,033.0,026.5,016.1,0000.0,0010.55,0004.96,0004.15
2024-04-11 17:33:00,SystemResetWarning,0832.3,5.00,000.00,024.7,024.2,000.0,033.0,026.5,016.0,0000.0,0010.49,0004.97,0004.16
2024-04-11 17:34:00,SystemResetWarning,0832.3,5.00,000.00,024.7,024.2,000.0,033.0,026.5,016.1,0000.0,0010.49,0004.99,0004.18
2024-04-11 17:35:00,SystemResetWarning,0832.3,5.00,000.00,024.7,024.2,000.0,033.1,026.6,016.2,0000.0,0011.12,0005.06,0004.19
2024-04-11 17:36:00,SystemResetWarning,0832.2,5.00,000.00,024.7,024.2,000.0,033.1,026.6,016.6,0000.0,0011.79,0005.07,0004.19
2024-04-11 17:37:00,SystemResetWarning,0832.2,5.00,000.00,024.7,024.3,000.0,033.1,026.6,016.4,0000.0,0011.98,0005.04,0004.18
2024-04-11 17:38:00,SystemResetWarning,0832.2,5.00,000.00,024.8,024.3,000.0,033.1,026.6,016.4,0000.0,0012.45,0005.07,0004.18
2024-04-11 17:39:00,SystemResetWarning,0832.2,5.00,000.00,024.8,024.3,000.0,033.1,026.7,016.6,0000.0,0012.76,0005.06,0004.17
2024-04-11 17:40:00,SystemResetWarning,0832.2,5.00,000.00,024.8,024.3,000.0,033.1,026.7,016.4,0000.0,0012.48,0005.04,0004.16
2024-04-11 17:41:00,SystemResetWarning,0832.2,5.00,000.00,024.8,024.3,000.0,033.1,026.7,016.2,0000.0,0011.72,0005.03,0004.16
2024-04-11 17:42:00,SystemResetWarning,0832.2,5.00,000.00,024.8,024.3,000.0,033.2,026.7,016.2,0000.0,0011.34,0005.00,0004.16
2024-04-11 17:43:00,SystemResetWarning,0832.2,5.00,000.00,024.9,024.3,000.0,033.2,026.7,016.2,0000.0,0011.36,0004.99,0004.15
2024-04-11 17:44:00,SystemResetWarning,0832.2,5.00,000.00,024.9,024.3,000.0,033.2,026.7,016.1,0000.0,0011.58,0004.98,0004.15
2024-04-11 17:45:00,SystemResetWarning,0832.2,5.00,000.00,024.9,024.3,000.0,033.2,026.7,016.1,0000.0,0012.24,0004.97,0004.16
2024-04-11 17:46:00,SystemResetWarning,0832.1,5.00,000.00,024.9,024.3,000.0,033.2,026.7,015.9,0000.0,0012.92,0004.93,0004.16
2024-04-11 17:47:00,SystemResetWarning,0832.2,4.99,000.00,024.9,024.3,000.0,033.2,026.7,016.0,0000.0,0012.38,0004.91,0004.16
2024-04-11 17:48:00,SystemResetWarning,0832.1,4.99,000.00,024.9,024.3,000.0,033.2,026.7,015.7,0000.0,0011.95,0004.92,0004.17
2024-04-11 17:49:00,SystemResetWarning,0832.1,4.99,000.00,024.9,024.3,000.0,033.2,026.7,015.7,0000.0,0011.91,0004.94,0004.18
2024-04-11 17:50:00,SystemResetWarning,0832.1,5.01,000.00,024.9,024.3,000.0,033.2,026.7,015.8,0000.0,0011.78,0004.93,0004.20
2024-04-11 17:51:00,SystemResetWarning,0832.1,5.01,000.00,024.9,024.3,000.0,033.2,026.7,015.8,0000.0,0011.69,0005.01,0004.22
2024-04-11 17:52:00,SystemResetWarning,0832.1,5.00,000.00,024.9,024.3,000.0,033.3,026.7,016.0,0000.0,0011.94,0005.06,0004.23
2024-04-11 17:53:00,SystemResetWarning,0832.1,4.99,000.00,024.9,024.3,000.0,033.3,026.7,016.0,0000.0,0011.88,0005.03,0004.23
2024-04-11 17:54:00,SystemResetWarning,0832.1,4.99,000.00,024.9,024.3,000.0,033.3,026.7,015.8,0000.0,0012.01,0005.06,0004.23
2024-04-11 17:55:00,SystemResetWarning,0832.0,5.01,000.00,024.9,024.3,000.0,033.3,026.7,016.0,0000.0,0011.99,0005.08,0004.23
2024-04-11 17:56:00,SystemResetWarning,0832.0,5.01,000.00,024.9,024.3,000.0,033.3,026.7,016.0,0000.0,0011.57,0005.08,0004.23
2024-04-11 17:57:00,SystemResetWarning,0832.0,5.00,000.00,024.9,024.3,000.0,033.3,026.8,015.7,0000.0,0010.59,0005.08,0004.23
2024-04-11 17:58:00,SystemResetWarning,0832.0,4.99,000.00,025.0,024.3,000.0,033.3,026.7,015.7,0000.0,0011.89,0005.10,0004.22
2024-04-11 17:59:00,SystemResetWarning,0832.0,4.99,000.00,025.0,024.3,000.0,033.3,026.8,015.9,0000.0,0013.10,0005.14,0004.23
